Change the Weather History Date:

Monday, October 29, 2012

  Actual Average Record
Temperature  
Mean Temperature 12 °F -  
Max Temperature 17 °F 12 °F 24 °F (2000)
Min Temperature 6 °F 3 °F -9 °F (1999)
Degree Days  
Heating Degree Days 54    
Moisture  
Dew Point -    
Average Humidity    
Maximum Humidity    
Minimum Humidity    
Precipitation  
Precipitation 0.00 in - - ()
Sea Level Pressure  
Sea Level Pressure 30.18 in    
Wind  
Wind Speed 17 mph ()    
Max Wind Speed 24 mph    
Max Gust Speed -    
Visibility 3.5 miles    
Events Snow    
Averages and records for this station are not official NWS values.
T = Trace of Precipitation, MM = Missing Value Source: Averaged Metar Reports

Daily Weather History Graph

Daily Weather History Graph

Search for Another Location

Airport or City:

Trip Planner

Search our weather history database for the weather conditions in past years. The results will help you decide how hot, cold, wet, or windy it might be!

Date:

Astronomy

Oct. 29, 2012 Rise Set
Actual Time 8:50 AM EDT 4:04 PM EDT
Civil Twilight 7:44 AM EDT 5:10 PM EDT
Nautical Twilight 6:36 AM EDT 6:18 PM EDT
Astronomical Twilight 5:29 AM EDT 7:24 PM EDT
Moon 3:28 PM EDT (10/29) 8:57 AM EDT (10/29)
Length of Visible Light 9h 25m
Length of Day
7h 13m
Full, 100% of the Moon is Illuminated
Oct 29
Full
Oct 29
Full
Nov 6
Last Quarter
Nov 13
New
Nov 20
First Quarter

Hourly Weather History & Observations

Time (EDT) Temp. Windchill Dew Point Humidity Pressure Visibility Wind Dir Wind Speed Gust Speed Precip Events Conditions
12:00 AM 17.6 °F 0.9 °F - N/A% 30.13 in 0.1 mi SW 20.7 mph - N/A   Light Freezing Drizzle
12:22 AM 17.6 °F 1.3 °F - N/A% 29.99 in 0.1 mi SW 19.6 mph - N/A Snow Light Snow
12:33 AM 17.6 °F 0.5 °F - N/A% 29.99 in 0.1 mi WSW 21.9 mph - N/A   Light Freezing Drizzle
12:42 AM 17.6 °F 0.1 °F - N/A% 29.99 in 0.2 mi WSW 23.0 mph - N/A   Light Freezing Drizzle
12:49 AM 17.6 °F 0.1 °F - N/A% 30.00 in 0.2 mi WSW 23.0 mph - N/A Snow Light Snow
1:00 AM 17.6 °F 0.1 °F - N/A% 30.15 in 0.2 mi WSW 23.0 mph - N/A Snow Light Snow
1:01 AM 17.6 °F 0.1 °F - N/A% 30.00 in 0.2 mi WSW 23.0 mph - N/A   Light Freezing Drizzle
1:18 AM 17.6 °F 0.1 °F - N/A% 30.00 in 0.2 mi WSW 23.0 mph - N/A Snow Light Snow
1:40 AM 17.6 °F -0.3 °F - N/A% 30.01 in 0.2 mi WSW 24.2 mph - N/A Snow Light Snow
1:48 AM 17.6 °F -0.3 °F - N/A% 30.02 in 0.2 mi West 24.2 mph - N/A   Light Freezing Drizzle
1:50 AM 17.6 °F 0.5 °F - N/A% 30.02 in 0.2 mi West 21.9 mph - N/A   Light Freezing Drizzle
2:00 AM 16 °F - - % 30.17 in 0 mi West 21.9 mph - -  
2:23 AM 15.8 °F -2.3 °F - N/A% 30.03 in 0.4 mi WSW 23.0 mph - N/A Snow Light Snow
2:45 AM 15.8 °F -1.5 °F - N/A% 30.03 in 0.5 mi WSW 20.7 mph - N/A Snow Light Snow
2:48 AM 15.8 °F -0.6 °F - N/A% 30.04 in 0.4 mi WSW 18.4 mph - N/A Snow Light Snow
3:00 AM 15.8 °F -1.1 °F - N/A% 30.19 in 0.4 mi West 19.6 mph - N/A Snow Light Snow
3:15 AM 15.8 °F -1.5 °F - N/A% 30.05 in 0.5 mi WSW 20.7 mph - N/A Snow Light Snow
3:33 AM 15.8 °F -1.1 °F - N/A% 30.05 in 1.0 mi WSW 19.6 mph - N/A Snow Light Snow
3:41 AM 15.8 °F -1.5 °F - N/A% 30.06 in 1.4 mi West 20.7 mph - N/A Snow Light Snow
3:52 AM 15.8 °F -1.5 °F - N/A% 30.06 in 1.0 mi West 20.7 mph - N/A Snow Light Snow
3:54 AM 15.8 °F -1.1 °F - N/A% 30.07 in 1.0 mi West 19.6 mph - N/A Snow Light Snow
4:00 AM 14.0 °F -2.5 °F - N/A% 30.22 in 0.8 mi West 17.3 mph - N/A Snow Light Snow
4:12 AM 14.0 °F -3.0 °F - N/A% 30.07 in 1.0 mi West 18.4 mph - N/A Snow Light Snow
4:22 AM 14.0 °F -3.0 °F - N/A% 30.07 in 1.4 mi West 18.4 mph - N/A Snow Light Snow
4:27 AM 14.0 °F -3.0 °F - N/A% 30.08 in 1.5 mi West 18.4 mph - N/A Snow Light Snow
4:33 AM 14.0 °F -3.4 °F - N/A% 30.08 in 1.6 mi West 19.6 mph - N/A Snow Light Snow
4:34 AM 14.0 °F -3.0 °F - N/A% 30.08 in 1.8 mi West 18.4 mph - N/A   Clear
4:41 AM 14.0 °F -3.0 °F - N/A% 30.08 in 1.1 mi West 18.4 mph - N/A   Clear
4:42 AM 14.0 °F -2.5 °F - N/A% 30.08 in 1.0 mi West 17.3 mph - N/A   Clear
4:44 AM 14.0 °F -3.0 °F - N/A% 30.08 in 0.6 mi WSW 18.4 mph - N/A   Clear
4:53 AM 14.0 °F -2.0 °F - N/A% 30.08 in 1.0 mi WSW 16.1 mph - N/A   Clear
4:58 AM 14.0 °F -2.0 °F - N/A% 30.08 in 1.0 mi WSW 16.1 mph - N/A   Clear
5:00 AM 14 °F - - % 30.24 in 1 mi WSW 17.3 mph - -  
5:00 AM 14.0 °F -2.5 °F - N/A% 30.24 in 0.6 mi WSW 17.3 mph - N/A   Clear
5:03 AM 14.0 °F -2.5 °F - N/A% 30.09 in 0.4 mi WSW 17.3 mph - N/A   Clear
5:30 AM 14.0 °F -2.0 °F - N/A% 30.10 in 0.5 mi WSW 16.1 mph - N/A   Clear
5:40 AM 14.0 °F -2.0 °F - N/A% 30.10 in 0.6 mi WSW 16.1 mph - N/A   Overcast
5:42 AM 14.0 °F -1.4 °F - N/A% 30.10 in 1.0 mi WSW 15.0 mph - N/A   Overcast
5:47 AM 14.0 °F -2.0 °F - N/A% 30.10 in 3.0 mi WSW 16.1 mph - N/A   Overcast
5:48 AM 14.0 °F -2.0 °F - N/A% 30.10 in 3.0 mi WSW 16.1 mph - N/A Snow Light Snow
5:50 AM 14.0 °F -2.0 °F - N/A% 30.10 in 3.0 mi WSW 16.1 mph - N/A Snow Light Snow
5:51 AM 14.0 °F -1.4 °F - N/A% 30.10 in 3.0 mi WSW 15.0 mph - N/A Snow Light Snow
5:53 AM 14.0 °F -2.0 °F - N/A% 30.10 in 3.0 mi WSW 16.1 mph - N/A Snow Light Snow
6:00 AM 14.0 °F -3.0 °F - N/A% 30.26 in 4.0 mi WSW 18.4 mph - N/A Snow Light Snow
6:07 AM 14.0 °F -3.4 °F - N/A% 30.10 in 5.0 mi WSW 19.6 mph - N/A   Overcast
6:11 AM 14.0 °F -3.4 °F - N/A% 30.10 in 5.0 mi WSW 19.6 mph - N/A   Overcast
6:39 AM 14.0 °F -3.0 °F - N/A% 30.11 in 3.0 mi WSW 18.4 mph - N/A   Overcast
6:45 AM 14.0 °F -3.4 °F - N/A% 30.11 in 1.4 mi WSW 19.6 mph - N/A   Clear
6:48 AM 14.0 °F -3.9 °F - N/A% 30.11 in 1.1 mi WSW 20.7 mph - N/A Snow Light Snow
6:49 AM 14.0 °F -3.9 °F - N/A% 30.11 in 1.1 mi WSW 20.7 mph - N/A   Light Freezing Drizzle
6:56 AM 14.0 °F -3.9 °F - N/A% 30.11 in 1.4 mi WSW 20.7 mph - N/A Snow Light Snow
7:00 AM 14.0 °F -3.4 °F - N/A% 30.27 in 2.1 mi WSW 19.6 mph - N/A Snow Light Snow
7:05 AM 14.0 °F -3.0 °F - N/A% 30.11 in 1.4 mi WSW 18.4 mph - N/A Snow Light Snow
7:25 AM 14.0 °F -3.0 °F - N/A% 30.12 in 2.5 mi WSW 18.4 mph - N/A Snow Light Snow
7:53 AM 14.0 °F -3.9 °F - N/A% 30.12 in 3.0 mi WSW 20.7 mph - N/A Snow Light Snow
7:55 AM 14.0 °F -3.9 °F - N/A% 30.12 in 3.5 mi WSW 20.7 mph - N/A Snow Light Snow
7:58 AM 14.0 °F -3.4 °F - N/A% 30.12 in 3.5 mi WSW 19.6 mph - N/A Snow Light Snow
8:00 AM 13 °F - - % 30.28 in 3 mi WSW 19.6 mph - -   Overcast
8:00 AM 14.0 °F -3.4 °F - N/A% 30.28 in 3.5 mi West 19.6 mph - N/A Snow Light Snow
8:15 AM 12.2 °F -6.3 °F - N/A% 30.13 in 3.5 mi West 20.7 mph - N/A Snow Light Snow
8:17 AM 12.2 °F -5.3 °F - N/A% 30.13 in 3.5 mi West 18.4 mph - N/A Snow Light Snow
8:25 AM 12.2 °F -4.8 °F - N/A% 30.13 in 3.0 mi West 17.3 mph - N/A Snow Light Snow
8:30 AM 12.2 °F -5.3 °F - N/A% 30.13 in 2.8 mi West 18.4 mph - N/A Snow Light Snow
8:48 AM 12.2 °F -5.3 °F - N/A% 30.14 in 3.0 mi West 18.4 mph - N/A Snow Light Snow
8:56 AM 12.2 °F -5.3 °F - N/A% 30.14 in 3.0 mi West 18.4 mph - N/A Snow Light Snow
8:58 AM 12.2 °F -4.8 °F - N/A% 30.14 in 3.0 mi West 17.3 mph - N/A Snow Light Snow
9:00 AM 12.2 °F -4.8 °F - N/A% 30.31 in 3.0 mi West 17.3 mph - N/A Snow Light Snow
9:02 AM 12.2 °F -5.3 °F - N/A% 30.15 in 3.0 mi West 18.4 mph - N/A Snow Light Snow
9:14 AM 12.2 °F -5.3 °F - N/A% 30.16 in 3.0 mi West 18.4 mph - N/A Snow Light Snow
9:22 AM 12.2 °F -4.3 °F - N/A% 30.16 in 3.0 mi West 16.1 mph - N/A Snow Light Snow
9:25 AM 12.2 °F -4.8 °F - N/A% 30.16 in 3.0 mi West 17.3 mph - N/A Snow Light Snow
9:26 AM 12.2 °F -5.3 °F - N/A% 30.16 in 4.0 mi West 18.4 mph - N/A Snow Light Snow
9:46 AM 12.2 °F -4.3 °F - N/A% 30.16 in 3.5 mi West 16.1 mph - N/A Snow Light Snow
9:50 AM 12.2 °F -5.3 °F - N/A% 30.16 in 3.5 mi West 18.4 mph - N/A Snow Light Snow
10:00 AM 12.2 °F -4.8 °F - N/A% 30.33 in 3.5 mi West 17.3 mph - N/A Snow Light Snow
10:08 AM 12.2 °F -4.3 °F - N/A% 30.17 in 6.0 mi West 16.1 mph - N/A Snow Light Snow
11:00 AM 11 °F - - % 30.35 in 7 mi WNW 12.7 mph - - Snow Light Snow
11:00 AM 10.4 °F -5.4 °F - N/A% 30.35 in 7.0 mi WNW 13.8 mph - N/A Snow Light Snow
11:08 AM 10.4 °F -4.1 °F - N/A% 30.19 in 7.0 mi WNW 11.5 mph - N/A   Overcast
11:09 AM 10.4 °F -4.1 °F - N/A% 30.19 in 7.0 mi WNW 11.5 mph - N/A Snow Light Snow
11:11 AM 10.4 °F -4.1 °F - N/A% 30.19 in 7.0 mi WNW 11.5 mph - N/A   Overcast
11:14 AM 10.4 °F -4.8 °F - N/A% 30.19 in 7.0 mi WNW 12.7 mph - N/A Snow Light Snow
11:35 AM 10.4 °F -3.3 °F - N/A% 30.19 in 7.0 mi NW 10.4 mph - N/A   Mostly Cloudy
11:40 AM 10.4 °F -4.8 °F - N/A% 30.19 in 7.0 mi NW 12.7 mph - N/A Snow Light Snow
11:42 AM 10.4 °F -4.1 °F - N/A% 30.19 in 7.0 mi NW 11.5 mph - N/A   Mostly Cloudy
11:46 AM 8.6 °F -5.5 °F - N/A% 30.19 in 7.0 mi NW 10.4 mph - N/A Snow Light Snow
12:00 PM 8.6 °F -3.7 °F - N/A% 30.37 in 6.0 mi NW 8.1 mph - N/A Snow Light Snow
12:24 PM 8.6 °F -3.7 °F - N/A% 30.20 in 6.0 mi WNW 8.1 mph - N/A   Overcast
1:00 PM 8.6 °F -6.3 °F - N/A% 30.38 in 9.0 mi WNW 11.5 mph - N/A   Overcast
1:02 PM 8.6 °F -6.3 °F - N/A% 30.21 in 8.0 mi WNW 11.5 mph - N/A Snow Light Snow
1:10 PM 8.6 °F -7.0 °F - N/A% 30.21 in 7.0 mi WNW 12.7 mph - N/A   Overcast
2:00 PM 8 °F - - % 30.40 in 7 mi NNW 10.4 mph - -   Overcast
2:00 PM 8.6 °F -4.7 °F - N/A% 30.40 in 8.0 mi NNW 9.2 mph - N/A   Overcast
3:00 PM 6.8 °F -4.8 °F - N/A% 30.43 in 8.0 mi North 6.9 mph - N/A   Overcast
4:00 PM 6.8 °F -5.9 °F - N/A% 30.45 in 9.0 mi NNW 8.1 mph - N/A   Overcast
5:00 PM 7 °F - - % 30.46 in 9 mi NW 9.2 mph - -   Overcast
5:00 PM 6.8 °F -5.9 °F - N/A% 30.46 in 9.0 mi NW 8.1 mph - N/A   Overcast
6:00 PM 8.6 °F -4.7 °F - N/A% 30.47 in 9.0 mi NW 9.2 mph - N/A   Overcast
7:00 PM 8.6 °F -4.7 °F - N/A% 30.48 in 9.0 mi NW 9.2 mph - N/A   Overcast
8:00 PM 8 °F - - % 30.50 in 9 mi NW 6.9 mph - -   Overcast
8:00 PM 8.6 °F -2.6 °F - N/A% 30.50 in 9.0 mi NW 6.9 mph - N/A   Overcast
9:00 PM 8.6 °F -2.6 °F - N/A% 30.50 in 9.0 mi WNW 6.9 mph - N/A   Overcast
10:00 PM 8.6 °F -2.6 °F - N/A% 30.51 in 9.0 mi NW 6.9 mph - N/A   Overcast
11:00 PM 9 °F - - % 30.51 in 9 mi NW 4.6 mph - -   Overcast
11:00 PM 8.6 °F -1.3 °F - N/A% 30.51 in 9.0 mi NW 5.8 mph - N/A   Overcast